Flag for U.S.A. Weather past 2 weeks in Memphis, Tennessee, U.S.A.

Now
43 °F

Passing clouds.


Feels Like: 36 °F
Forecast: 33 / 49 °F
Wind: 15 mph from Northeast

Location: Memphis International Airport

Current Time: Jan 30, 2015 at 10:15:24 AM

Latest Report: Jan 30, 2015 at 9:54 AM


Visibility: 10 mi

Pressure: 30.51 "Hg

Humidity: 49%

Dew point: 25 °F

Location of MemphisLocation

Historic Weather in Memphis — Graph

°F

Memphis temperature yesterday

Maximum temperature yesterday: 63 °F (at 11:54 AM)
Minimum temperature yesterday: 43 °F (at 11:54 PM)
Average temperature yesterday: 54 °F

Past Weeks' High & Low Weather Summary

 TemperatureHumidityPressure
High65 °F (Jan 19, 2:54 PM)89% (Jan 24, 3:54 AM)30.50 "Hg (Jan 24, 3:54 AM)
Low28 °F (Jan 15, 9:54 PM)18% (Jan 18, 1:54 PM)29.68 "Hg (Jan 25, 1:54 PM)
Average46 °F58%30.11 "Hg
* Reported Jan 15 8:54 AM — Jan 30 8:54 AM, Memphis, Weather by CustomWeather, © 2014

Note: Actual official high and low records may vary slightly from our data, if they occured in-between our weather recording intervals... More about our weather records

Advertising

Memphis weather history for previous 24 hours

 ConditionsComfort  
Time TempWeatherWind HumidityBarometerVisibility
8:54 AM
Jan 30
40 °FPassing clouds.10 mph60%30.50 "Hg10 mi
7:54 AM38 °FPassing clouds.9 mph68%30.49 "Hg10 mi
6:54 AM36 °FPassing clouds.9 mph70%30.47 "Hg10 mi
5:54 AM35 °FClear.6 mph72%30.46 "Hg10 mi
4:54 AM37 °FClear.9 mph70%30.43 "Hg10 mi
3:54 AM38 °FPassing clouds.7 mph68%30.42 "Hg10 mi
2:54 AM41 °FPassing clouds.9 mph62%30.42 "Hg10 mi
1:54 AM41 °FPassing clouds.5 mph62%30.42 "Hg10 mi
12:54 AM42 °FPassing clouds.8 mph57%30.41 "Hg10 mi
11:54 PM
Jan 29
43 °FPassing clouds.10 mph56%30.41 "Hg10 mi
10:54 PM44 °FOvercast.14 mph53%30.41 "Hg10 mi
9:54 PM45 °FOvercast.13 mph53%30.40 "Hg10 mi
8:54 PM46 °FOvercast.13 mph54%30.38 "Hg10 mi
7:54 PM46 °FMostly cloudy.12 mph56%30.36 "Hg10 mi
6:54 PM46 °FOvercast.21 mph61%30.34 "Hg10 mi
5:54 PM48 °FOvercast.14 mph61%30.29 "Hg10 mi
4:54 PM51 °FMostly cloudy.16 mph56%30.24 "Hg9 mi
3:54 PM56 °FCloudy.14 mph51%30.19 "Hg10 mi
2:54 PM59 °FOvercast.17 mph48%30.15 "Hg10 mi
1:54 PM63 °FOvercast.16 mph45%30.11 "Hg10 mi
12:54 PM63 °FHigh level clouds.12 mph47%30.10 "Hg10 mi
11:54 AM63 °FHigh level clouds.12 mph50%30.10 "Hg10 mi
10:54 AM60 °FHigh level clouds.12 mph60%30.11 "Hg10 mi
Weather by CustomWeather, © 2014

See weather overviewHow to use our weather pages